This is the latest recevied weather packets stored in our database for station/object W0JRT-6. If no packets are shown the sender has not sent any weather packets the latest 10 day(s).
| Time | Temp. | Humidity | Pressure | Rain* | Wind** | Luminosity | Snow |
|---|---|---|---|---|---|---|---|
| 1777708212 | 4.44° C | 80% | 1020 hPa | 0 mm | - | - | - |
| 1777707612 | 3.89° C | 81% | 1019.8 hPa | 0 mm | - | - | - |
| 1777707003 | 4.44° C | 79% | 1019.6 hPa | 0 mm | - | - | - |
| 1777706412 | 5° C | 80% | 1019.5 hPa | 0 mm | - | - | - |
| 1777705809 | 5° C | 77% | 1019.5 hPa | 0 mm | - | - | - |
| 1777705203 | 5.56° C | 76% | 1019.4 hPa | 0 mm | - | - | - |
| 1777704604 | 6.11° C | 74% | 1019.3 hPa | 0 mm | - | - | - |
| 1777704002 | 7.22° C | 71% | 1019.2 hPa | 0 mm | - | - | - |
| 1777703403 | 7.78° C | 63% | 1019.2 hPa | 0 mm | - | - | - |
| 1777702805 | 7.78° C | 62% | 1019.1 hPa | 0 mm | - | - | - |
| 1777702200 | 7.78° C | 64% | 1019.1 hPa | 0 mm | - | - | - |
| 1777700408 | 8.33° C | 61% | 1018.8 hPa | 0 mm | - | - | - |
| 1777699805 | 8.33° C | 62% | 1018.7 hPa | 0 mm | - | - | - |
| 1777699203 | 8.33° C | 62% | 1018.6 hPa | 0 mm | - | - | - |
| 1777698598 | 8.33° C | 62% | 1018.5 hPa | 0 mm | - | - | - |
| 1777697998 | 8.89° C | 60% | 1018.4 hPa | 0 mm | - | - | - |
| 1777697399 | 8.89° C | 59% | 1018.3 hPa | 0 mm | - | - | - |
| 1777695613 | 10° C | 57% | 1018.1 hPa | 0 mm | - | - | - |
| 1777694999 | 10° C | 55% | 1018 hPa | 0 mm | - | - | - |
| 1777694399 | 10° C | 55% | 1018 hPa | 0 mm | - | - | - |
| 1777693798 | 10° C | 54% | 1017.9 hPa | 0 mm | - | - | - |
| 1777693201 | 10.56° C | 55% | 1017.8 hPa | 0 mm | - | - | - |
| 1777691999 | 10.56° C | 57% | 1017.5 hPa | 0 mm | - | - | - |
| 1777691401 | 11.11° C | 56% | 1017.3 hPa | 0 mm | - | - | - |
| 1777690800 | 10.56° C | 57% | 1017.1 hPa | 0 mm | - | - | - |
* Rain since midnight (hover to see other rain measurements)
** Current wind speed in m/s (hover to see current wind gust speed)